This is the latest recevied weather packets stored in our database for station/object KC3ROS. If no packets are shown the sender has not sent any weather packets the latest 1 day(s).
| Time | Temp. | Humidity | Pressure | Rain* | Wind** | Luminosity | Snow |
|---|---|---|---|---|---|---|---|
| 1778040728 | 15° C | 91% | 1007.1 hPa | 0 mm | - | 0 W/m² | - |
| 1778040425 | 15° C | 91% | 1007.1 hPa | 0 mm | - | 0 W/m² | - |
| 1778040122 | 15° C | 90% | 1007.2 hPa | 0 mm | - | 0 W/m² | - |
| 1778039212 | 15° C | 90% | 1007.1 hPa | 0 mm | - | 0 W/m² | - |
| 1778038607 | 15.56° C | 89% | 1007 hPa | 0 mm | - | 0 W/m² | - |
| 1778038303 | 15.56° C | 89% | 1007 hPa | 0 mm | - | 0 W/m² | - |
| 1778038001 | 15.56° C | 89% | 1006.9 hPa | 0 mm | - | 0 W/m² | - |
| 1778037698 | 15.56° C | 88% | 1006.6 hPa | 0 mm | - | 0 W/m² | - |
| 1778037394 | 15.56° C | 88% | 1006.9 hPa | 0 mm | - | 0 W/m² | - |
| 1778036790 | 15.56° C | 88% | 1006.8 hPa | 0 mm | - | 0 W/m² | - |
| 1778036486 | 15.56° C | 87% | 1006.9 hPa | 0 mm | - | 0 W/m² | - |
| 1778036183 | 15.56° C | 87% | 1006.9 hPa | 0 mm | - | 0 W/m² | - |
| 1778035879 | 15.56° C | 87% | 1007.1 hPa | 0 mm | - | 0 W/m² | - |
| 1778035577 | 15.56° C | 86% | 1007.2 hPa | 0 mm | - | 0 W/m² | - |
| 1778035272 | 16.11° C | 85% | 1007.3 hPa | 0 mm | - | 0 W/m² | - |
| 1778034969 | 16.11° C | 84% | 1007 hPa | 0 mm | - | 0 W/m² | - |
| 1778034667 | 16.11° C | 83% | 1007.1 hPa | 0 mm | - | 0 W/m² | - |
| 1778034364 | 16.67° C | 82% | 1007.1 hPa | 0 mm | - | 0 W/m² | - |
| 1778034061 | 16.67° C | 80% | 1007.2 hPa | 0 mm | - | 0 W/m² | - |
| 1778033759 | 17.78° C | 75% | 1007 hPa | 0 mm | - | 0 W/m² | - |
| 1778033456 | 18.33° C | 70% | 1006.9 hPa | 0 mm | - | 0 W/m² | - |
| 1778033154 | 18.89° C | 65% | 1006.8 hPa | 0 mm | - | 0 W/m² | - |
| 1778032245 | 18.89° C | 59% | 1006.6 hPa | 0 mm | - | 0 W/m² | - |
| 1778031943 | 19.44° C | 59% | 1006.6 hPa | 0 mm | - | 0 W/m² | - |
| 1778031638 | 19.44° C | 59% | 1006.7 hPa | 0 mm | - | 0 W/m² | - |
* Rain latest hour (hover to see other rain measurements)
** Current wind speed in m/s (hover to see current wind gust speed)